Regional Weather Roundup
Issued by NWS

Home | Current Version | Previous Version | Text Only | Print | Product List | Glossary On
Versions: 1 2 3 4 5 6 7 8 9 10 11 12 13 14 15 16 17 18 19 20 21 22 23 24 25 26 27 28 29 30 31 32 33 34 35 36 37 38 39 40 41 42 43 44 45 46 47 48 49 50
000
ASUS45 KABQ 161910
RWRNM
WEATHER ROUNDUP FOR NEW MEXICO
NATIONAL WEATHER SERVICE ALBUQUERQUE NM
100 PM MDT WED APR 16 2014

NOTE: "FAIR" MEANS FEW OR NO CLOUDS BELOW 12,000 FEET AGL WITH NO
       SIGNIFICANT WEATHER OR OBSTRUCTIONS TO VISION.

      THIS PRODUCT IS RELEASED AS TWO VERSIONS.  ONE VERSION NEAR
      THE TOP OF THE HOUR CONTAINING PRELIMINARY DATA FROM ALBUQUERQUE
      AND OTHER STATIONS.  A FINAL VERSION WITH ADDITIONAL DATA IS
      ISSUED ABOUT 10 MINUTES AFTER THE HOUR.

NMZ501-503-504-510>518-162000-
NORTHWEST PLATEAU/NORTHCENTRAL MOUNTAINS

CITY           SKY/WX    TMP DP  RH WIND       PRES   REMARKS
FARMINGTON     SUNNY     64   9  11 W12       29.87F
LOS ALAMOS     SUNNY     59   9  13 S6        29.92F
SANTA FE       SUNNY     65   6  10 SW10G17   29.88F
TAOS           SUNNY     63  10  13 W12G22    29.91F
ANGEL FIRE     FAIR      55  11  17 W16G28    29.94F

$$
NMZ402-403-502-505>509-162000-
WESTCENTRAL MOUNTAINS/SOUTHWEST MOUNTAINS

CITY           SKY/WX    TMP DP  RH WIND       PRES   REMARKS
GALLUP         PTSUNNY   62   7  11 MISG      29.94F
GRANTS         PTSUNNY   66   5   9 NW14G22   29.92F
SILVER CITY    SUNNY     72   0   6 W10G23    29.92F

$$
NMZ407-409-411-412-162000-
SOUTHERN DESERTS

CITY           SKY/WX    TMP DP  RH WIND       PRES   REMARKS
LORDSBURG      FAIR      73   7   7 NW8G21    29.89F
DEMING         SUNNY     79   3   5 W16G29    29.85F
LAS CRUCES     SUNNY     77   7   7 SW12      29.87F
HOLLOMAN AFB   MOSUNNY   74  10   8 SE5       29.85F
ALAMOGORDO     MOSUNNY   75  10   8 W6G16     29.86F
T OR C         SUNNY     74   3   6 MISG      29.85F

$$
NMZ519>523-162000-
CENTRAL VALLEYS/CENTRAL HIGHLANDS

CITY           SKY/WX    TMP DP  RH WIND       PRES   REMARKS
ALBUQUERQUE    MOSUNNY   67   8  10 E5        29.87F
DOUBLE EAGLE   SUNNY     66   9  10 S6        29.89F
MORIARTY ARPT  FAIR      69   9   9 W21G29    29.89F
CLINES CORNERS SUNNY     64   5   9 NW15G30   29.90F
BELEN          FAIR      73  10   9 NW12G18   29.85F
SOCORRO        FAIR      74   9   8 S8        29.85F

$$
NMZ524>526-539-540-162000-
SOUTHCENTRAL MOUNTAINS

CITY           SKY/WX    TMP DP  RH WIND       PRES   REMARKS
RUIDOSO        SUNNY     68   1   7 W13G18    29.96F

$$
NMZ527>531-162000-
NORTHEAST HIGHLANDS/NORTHEAST PLAINS

CITY           SKY/WX    TMP DP  RH WIND       PRES   REMARKS
LAS VEGAS      MOSUNNY   64   7  10 VRB3      29.86F
RATON          PTSUNNY   66   8  10 SE12G17   29.83F
CLAYTON        MOSUNNY   60  24  25 NE20G30   29.88S

$$
NMZ532>537-162000-
EASTCENTRAL PLAINS

CITY           SKY/WX    TMP DP  RH WIND       PRES   REMARKS
TUCUMCARI      SUNNY     80  12   7 W9        29.75F
CANNON AFB     MOSUNNY   75   4   6 W14       29.81F
CLOVIS AIRPORT SUNNY     77  18  10 SW16G22   29.83F

$$
NMZ028-029-538-162000-
SOUTHEAST PLAINS

CITY           SKY/WX    TMP DP  RH WIND       PRES   REMARKS
ROSWELL        SUNNY     79  11   7 SE10      29.78F
ARTESIA        SUNNY     77  19  11 SE9G20    29.80F
CARLSBAD       SUNNY     80  14   8 SE8       29.79F
HOBBS          SUNNY     75  14   9 S7        29.85F


$$



USA.gov is the U.S. government's official web portal to all federal, state and local government web resources and services.